[[{"header":{"parameterUnit":"m.s-1","parameterCategory":1,"la1":30.2991,"la2":30.254,"lo1":-89.0895,"lo2":-89.0444,"dy":0.0017,"dx":0.0017,"nx":28,"ny":28,"refTime":"2026-02-24T09:00:00:Z","depth":0,"parameterNumber":2,"parameterNumberName":"U-component_of_WINDS"},"data":[0,0,0,0,0,0,0,0,0,0,0,0,0,0,0,0,0,0,0,0,0,0,0,0,0,0,0,0,0,0,0,0,0,0,0,0,0,0,0,0,0,0,0,0,0,0,0,0,0,0,0,0,0,0,0,0,0,0,4.453,4.453,0,4.4601,4.4602,4.4603,4.4552,4.455,4.4548,4.4546,4.4617,4.4621,4.4625,0,0,0,0,0,0,0,0,0,0,0,0,0,4.4345,4.4348,4.453,4.453,4.4531,4.4601,4.4602,4.4603,4.4553,4.455,4.4547,4.4545,4.4616,4.4621,4.4626,0,0,0,0,0,0,0,0,0,0,0,0,0,4.4422,4.435,4.4529,4.4515,4.4514,4.4601,4.4602,4.4603,4.4553,4.455,4.4546,4.4543,4.4615,4.462,4.4626,4.4731,0,0,4.4645,4.4647,0,0,0,0,0,0,0,0,4.4417,4.4428,4.4516,4.4516,4.4515,4.4564,4.4563,4.4646,4.4554,4.4538,4.4545,4.4542,4.4602,4.4609,4.463,4.4735,4.4738,4.4645,4.4649,4.4652,4.4653,0,0,0,0,0,0,0,4.4412,4.4425,4.4558,4.4517,4.4517,4.4503,4.451,4.4579,4.4588,4.4539,4.4536,4.4545,4.4602,4.4624,4.4631,4.4739,4.4645,4.4651,4.4654,4.4657,4.4929,4.4932,0,0,0,0,0,0,4.4408,4.4421,4.4556,4.456,4.4457,4.4509,4.4517,4.4552,4.4588,4.459,4.4548,4.4542,4.4616,4.4624,4.4634,4.4755,4.4652,4.4657,4.4661,4.4925,4.4929,4.4933,0,0,0,0,0,0,4.4405,4.4421,4.4553,4.449,4.4505,4.4516,4.4555,4.4555,4.4578,4.4594,4.4595,4.457,4.4613,4.4625,4.4707,4.4757,4.466,4.4665,4.4921,4.4926,4.4931,4.5002,0,0,0,0,0,0,4.44,4.442,4.4461,4.4491,4.4509,4.4626,4.4559,4.4559,4.4589,4.4582,4.4615,4.4617,4.4612,4.4698,4.4713,4.4764,4.467,4.4916,4.4923,4.493,4.4995,4.5009,4.5021,0,0,0,0,0,4.4393,4.4479,4.4463,4.448,4.4561,4.4629,4.4639,4.4632,4.4593,4.4633,4.4643,4.4616,4.475,4.4707,4.4723,4.4777,4.4913,4.4921,4.4929,4.4989,4.5006,4.5021,0,0,0,0,0,0,4.4455,4.4482,4.4466,4.4564,4.4594,4.462,4.4671,4.4651,4.4692,4.4685,4.4673,4.4681,4.4765,4.478,4.4731,4.4878,4.4825,4.4837,4.4865,4.4882,4.4894,4.4888,4.4675,0,0,0,0,0,4.448,4.4534,4.4555,4.4639,4.4655,4.4661,4.469,4.4682,4.4713,4.4725,4.4741,4.4771,4.4819,4.4852,4.4898,4.4998,4.5002,4.5042,4.5055,4.5066,4.5075,4.5125,4.5142,4.496,4.496,4.496,0,0,4.4532,4.4554,4.4589,4.4652,4.4675,4.4729,4.4672,4.4733,4.4772,4.4734,4.4811,4.4824,4.4856,4.4946,4.4987,4.4961,4.5127,4.5076,4.5085,4.5088,4.5135,4.5152,4.5167,4.4965,4.4964,4.4963,0,0,4.4654,4.4678,4.4748,4.4772,4.4806,4.4809,4.4826,4.4855,4.4861,4.4938,4.491,4.4956,4.5041,4.5064,4.5087,4.5215,4.519,4.5231,4.5297,4.5346,4.536,4.5373,4.5415,4.543,4.524,4.5241,4.5241,0,4.4714,4.4795,4.4787,4.4849,4.4876,4.4844,4.4914,4.4937,4.4985,4.5004,4.4974,4.5077,4.5098,4.519,4.5221,4.5243,4.5259,4.5226,4.5359,4.5372,4.5383,4.5423,4.5439,4.5245,4.5245,4.5244,4.5244,0,4.4865,4.4922,4.4975,4.5021,4.5055,4.5121,4.512,4.5155,4.5143,4.5148,4.5225,4.5248,4.5296,4.5318,4.5308,4.5408,4.539,4.5361,4.5307,4.5405,4.5442,4.5457,4.5251,4.525,4.5248,4.5247,0,0,4.5028,4.5067,4.5086,4.5105,4.514,4.5183,4.5246,4.5293,4.5321,4.5355,4.5405,4.5477,4.5448,4.5474,4.5466,4.5509,4.5604,4.5473,4.5474,4.5493,4.5711,4.5731,4.5749,4.5589,4.5591,4.5594,4.5707,0,4.5148,4.5259,4.5252,4.5354,4.5404,4.5374,4.5428,4.5455,4.5461,4.5503,4.551,4.5559,4.552,4.5534,4.5576,4.5584,4.5647,4.5576,4.5632,4.5635,4.5622,4.5769,4.5791,4.5897,4.5722,4.5725,4.5727,0,4.5304,4.5342,4.5449,4.5473,4.5494,4.5543,4.5583,4.5626,4.5654,4.5655,4.5683,4.5667,4.5728,4.5674,4.5757,4.5708,4.5731,4.5738,4.5742,4.5745,4.5684,4.5772,4.5932,4.5946,4.575,4.5748,4.5746,0,4.5406,4.5485,4.5558,4.5576,4.5607,4.5641,4.5656,4.568,4.5708,4.5743,4.576,4.5803,4.5825,4.5857,4.5852,4.5815,4.5935,4.5882,4.5935,4.5935,4.5959,4.5957,4.6121,4.598,4.598,4.5979,4.5979,0,4.554,4.5606,4.5604,4.5649,4.572,4.5712,4.5783,4.5793,4.5815,4.5859,4.5837,4.5879,4.5871,4.5913,4.591,4.5976,4.5987,4.5988,4.5986,4.5988,4.5987,4.6001,4.5992,4.5984,4.5983,4.5982,4.5981,0,4.5665,4.5667,4.5744,4.5767,4.5774,4.5826,4.5844,4.5885,4.5889,4.5946,4.5959,4.5964,4.6012,4.601,4.6065,4.6062,4.6143,4.6134,4.6133,4.613,4.6181,4.6175,4.6357,4.6378,4.6227,4.6228,4.6229,0,4.5749,4.5798,4.5826,4.5854,4.587,4.5917,4.5944,4.5937,4.5966,4.6,4.6036,4.6082,4.6117,4.6194,4.6202,4.6243,4.6232,4.6293,4.6238,4.6238,4.6228,4.6224,4.6227,4.6303,4.6304,4.6306,4.6307,0,4.5895,4.5893,4.5934,4.5974,4.6007,4.6039,4.6067,4.6092,4.6087,4.6121,4.6169,4.6196,4.6251,4.6295,4.6333,4.6346,4.6325,4.6325,4.6338,4.634,4.6335,4.6334,4.6158,4.632,4.6318,4.6318,4.6317,4.6316,4.5999,4.6041,4.6065,4.611,4.6131,4.6158,4.6197,4.6205,4.6245,4.6288,4.6282,4.6334,4.6358,4.6407,4.6424,4.6464,4.6442,4.6463,4.6468,4.6472,4.6476,4.6332,4.6472,4.6471,4.6471,4.6471,4.647,0,4.6141,4.6155,4.6197,4.6237,4.6272,4.625,4.628,4.631,4.6356,4.6381,4.6416,4.6469,4.6511,4.6522,4.6562,4.6592,4.6583,4.6602,4.6598,4.6601,4.6495,4.6477,4.6609,4.6609,4.6609,4.6609,4.6608,4.6608,4.6218,4.6285,4.6286,4.6362,4.6376,4.6427,4.6446,4.6469,4.6488,4.6549,4.6583,4.6591,4.6609,4.6649,4.6686,4.6688,4.6702,4.6725,4.6722,4.6623,4.6609,4.6595,4.6579,4.6729,4.6729,4.6824,4.6825,4.6826]},{"header":{"parameterUnit":"m.s-1","parameterCategory":1,"la1":30.2991,"la2":30.254,"lo1":-89.0895,"lo2":-89.0444,"dy":0.0017,"dx":0.0017,"nx":28,"ny":28,"refTime":"2026-02-24T09:00:00:Z","depth":0,"parameterNumber":3,"parameterNumberName":"V-component_of_WINDS"},"data":[0,0,0,0,0,0,0,0,0,0,0,0,0,0,0,0,0,0,0,0,0,0,0,0,0,0,0,0,0,0,0,0,0,0,0,0,0,0,0,0,0,0,0,0,0,0,0,0,0,0,0,0,0,0,0,0,0,0,7.1209,7.1211,0,7.1342,7.1344,7.1345,7.129,7.1287,7.1284,7.1281,7.1411,7.1417,7.1424,0,0,0,0,0,0,0,0,0,0,0,0,0,7.0901,7.0907,7.1209,7.1211,7.1213,7.1342,7.1344,7.1345,7.1291,7.1287,7.1283,7.128,7.1409,7.1417,7.1424,0,0,0,0,0,0,0,0,0,0,0,0,0,7.1034,7.0908,7.1209,7.1201,7.1202,7.1341,7.1344,7.1346,7.1292,7.1287,7.1282,7.1278,7.1407,7.1416,7.1425,7.1579,0,0,7.1455,7.1459,0,0,0,0,0,0,0,0,7.1026,7.1045,7.1201,7.1202,7.1203,7.1295,7.1282,7.1424,7.1293,7.1257,7.1281,7.1276,7.1376,7.1388,7.1423,7.1585,7.159,7.1455,7.1461,7.1465,7.1468,0,0,0,0,0,0,0,7.1017,7.1039,7.1261,7.1203,7.1204,7.1188,7.1202,7.1309,7.1341,7.126,7.1257,7.1273,7.1376,7.1414,7.1425,7.1592,7.1455,7.1464,7.147,7.1473,7.1882,7.1887,0,0,0,0,0,0,7.1009,7.1032,7.1257,7.1265,7.1101,7.1198,7.1213,7.127,7.134,7.1346,7.1277,7.127,7.14,7.1414,7.143,7.1611,7.1465,7.1474,7.148,7.1877,7.1883,7.1889,0,0,0,0,0,0,7.1002,7.103,7.1252,7.1148,7.1175,7.1208,7.1272,7.1275,7.1313,7.1353,7.1358,7.1311,7.1396,7.1416,7.1542,7.1615,7.1479,7.1487,7.1871,7.1879,7.1886,7.1978,0,0,0,0,0,0,7.0994,7.1028,7.1088,7.115,7.1181,7.1364,7.1277,7.1281,7.1331,7.1323,7.1386,7.1391,7.1394,7.1528,7.1551,7.1626,7.1495,7.1865,7.1875,7.1884,7.1968,7.1987,7.2004,0,0,0,0,0,7.0983,7.1108,7.1092,7.1119,7.1258,7.1369,7.1386,7.1389,7.1337,7.1397,7.1421,7.1389,7.1604,7.1541,7.1567,7.1646,7.186,7.1872,7.1883,7.196,7.1984,7.2004,0,0,0,0,0,0,7.1053,7.1116,7.1099,7.1248,7.1304,7.1359,7.1435,7.1414,7.1484,7.1474,7.1472,7.1486,7.1615,7.1643,7.1572,7.1796,7.1723,7.1741,7.1773,7.1796,7.1813,7.1803,7.1503,0,0,0,0,0,7.1086,7.1174,7.1223,7.135,7.1379,7.1402,7.1451,7.1448,7.1504,7.1527,7.1561,7.1616,7.1694,7.1747,7.1822,7.1972,7.1983,7.2038,7.2056,7.2071,7.2085,7.2163,7.2188,7.1927,7.1927,7.1926,0,0,7.1155,7.12,7.1255,7.1365,7.1408,7.1495,7.1422,7.1519,7.1583,7.1541,7.1662,7.1688,7.1748,7.1886,7.1948,7.1913,7.216,7.2086,7.2097,7.2104,7.2178,7.2202,7.2224,7.1935,7.1933,7.1932,0,0,7.1325,7.137,7.1479,7.1523,7.1589,7.1603,7.1629,7.1688,7.1705,7.1826,7.1796,7.187,7.2007,7.2051,7.2091,7.2274,7.2246,7.2298,7.2391,7.2467,7.2488,7.2506,7.2569,7.2592,7.2313,7.2313,7.2313,0,7.1402,7.1535,7.1537,7.1636,7.1683,7.1651,7.1759,7.1801,7.1887,7.192,7.1879,7.2049,7.2088,7.2233,7.2278,7.2312,7.2339,7.2291,7.2485,7.2503,7.252,7.258,7.2604,7.2319,7.2318,7.2318,7.2317,0,7.1625,7.1717,7.1797,7.1882,7.1939,7.2042,7.2056,7.2113,7.2104,7.2122,7.2243,7.2288,7.237,7.2405,7.2397,7.2548,7.2524,7.2485,7.2412,7.2551,7.2607,7.263,7.2327,7.2325,7.2323,7.2322,0,0,7.1844,7.1928,7.1957,7.1994,7.2063,7.2133,7.2233,7.2315,7.2362,7.2422,7.2503,7.2619,7.2582,7.2628,7.2624,7.2691,7.283,7.2643,7.2644,7.2674,7.2996,7.3024,7.3051,7.2812,7.2816,7.282,7.299,0,7.2017,7.2195,7.2198,7.236,7.2443,7.2412,7.2498,7.2548,7.2567,7.2638,7.2657,7.2739,7.2685,7.2712,7.2777,7.2799,7.2894,7.2787,7.2885,7.2888,7.287,7.308,7.3111,7.327,7.3012,7.3016,7.3018,0,7.2244,7.2312,7.2483,7.2537,7.2572,7.265,7.2724,7.2794,7.2848,7.2856,7.2906,7.2892,7.299,7.2914,7.3048,7.2975,7.3015,7.3031,7.3037,7.3046,7.2961,7.3092,7.3321,7.3344,7.3053,7.3051,7.3048,0,7.2384,7.2518,7.2637,7.267,7.2737,7.2792,7.2822,7.2872,7.292,7.2983,7.3014,7.3088,7.3127,7.3183,7.3188,7.3133,7.3321,7.3247,7.3328,7.3328,7.3369,7.3366,7.3605,7.3397,7.3397,7.3396,7.3396,0,7.2577,7.2682,7.27,7.2773,7.2888,7.2889,7.3002,7.3027,7.3072,7.3146,7.3123,7.3193,7.3196,7.3267,7.327,7.3379,7.3397,7.3404,7.3404,7.3406,7.3405,7.3431,7.342,7.3403,7.3401,7.34,7.3399,0,7.2753,7.277,7.2896,7.2949,7.2965,7.3047,7.3091,7.3158,7.3174,7.3269,7.3291,7.3314,7.3396,7.3406,7.3502,7.3504,7.3634,7.3622,7.3616,7.3614,7.3694,7.3685,7.3957,7.3991,7.3763,7.3765,7.3767,0,7.2874,7.2954,7.3015,7.3064,7.3098,7.3177,7.3226,7.3229,7.328,7.3347,7.3406,7.3486,7.355,7.3681,7.3705,7.3777,7.3766,7.3856,7.3776,7.3775,7.3765,7.3759,7.3766,7.3871,7.3874,7.3876,7.3877,0,7.3087,7.309,7.3163,7.3238,7.3297,7.3356,7.3411,7.3452,7.3461,7.352,7.3604,7.3653,7.375,7.3829,7.3899,7.3926,7.3903,7.3902,7.3924,7.3927,7.3919,7.3922,7.3656,7.3896,7.3894,7.3893,7.3892,7.3891,7.3238,7.3306,7.336,7.344,7.3482,7.3533,7.3599,7.3623,7.3694,7.3774,7.377,7.3862,7.3911,7.4003,7.4036,7.4106,7.4076,7.4108,7.4116,7.4124,7.4131,7.3909,7.4119,7.4118,7.4118,7.4117,7.4117,0,7.3447,7.348,7.3554,7.3632,7.3694,7.3668,7.3727,7.378,7.3862,7.3911,7.3974,7.4069,7.4144,7.4174,7.4246,7.4296,7.4287,7.4315,7.4311,7.4317,7.4155,7.4128,7.4321,7.4321,7.4321,7.4321,7.4321,7.4321,7.3564,7.3677,7.3687,7.382,7.3851,7.3942,7.3978,7.4024,7.4062,7.417,7.4233,7.4252,7.4292,7.4367,7.4434,7.444,7.4467,7.4499,7.4501,7.4349,7.4328,7.4309,7.4283,7.4506,7.4506,7.4656,7.4658,7.4659]}]]